User: anonymous   Login
Location: Caltech
(34.1382°N, 118.1253°W)
Time: 16:57:29
(UTC-07:00)
Language:

Cosmos 2360 Rocket - Orbit

View from above orbital plane
View from above orbital plane
View from above satellite
View from above satellite

Ground track
Ground track

The orbit data is extracted from the following two-line orbital elements,

1 25407U 98045B   17082.80027136 -.00000263 +00000-0 -10956-3 0  9996
2 25407 071.0098 220.8679 0008859 322.9195 037.1315 14.15757284963822
Epoch (UTC): 23 March 2017 19:12:23
Eccentricity: 0.0008859
inclination: 71.0098°
perigee height: 833 km
apogee height: 846 km
right ascension of ascending node: 220.8679°
argument of perigee: 322.9195°
revolutions per day: 14.15757284
mean anomaly at epoch: 37.1315°
orbit number at epoch: 96382

The dashed part of the orbit path shows where the satellite is in the earth's shadow,  

DLR